This demonstration page uses our WeatherBlox Daily Observations layout. Learn more.

Left ArrowRight Arrow

Hourly Observations for May 6, 2022

Temp ( °F °C ) Dew Point ( °F °C ) Humidity (%) Winds ( mph kmh ) Pressure ( in mb ) Visibility ( mi km ) Precip ( " mm )
12:56 am 00:56 Mostly Cloudy 55 12.6 51 10.7 88 88 NE 5 7 29.90 1013 7 11 0.00 0.00
1:56 am 01:56 Mostly Cloudy with Mist and Fog 54 12.1 52 11.3 95 95 ENE 3 6 29.89 1012 6 10 0.00 0.00
2:56 am 02:56 Cloudy 54 12.1 51 10.5 90 90 ENE 8 13 29.87 1012 10 16 0.00 0.00
3:56 am 03:56 Cloudy 54 12.1 50 9.8 86 86 NE 5 7 29.88 1012 10 16 0.00 0.00
4:56 am 04:56 Mostly Cloudy 54 12.2 49 9.7 85 85 NE 6 9 29.88 1012 10 16 0.00 0.00
5:56 am 05:56 Mostly Cloudy 53 11.9 49 9.5 85 85 ENE 5 7 29.89 1012 10 16 0.00 0.00
6:56 am 06:56 Cloudy 53 11.9 49 9.3 84 84 N 3 6 29.90 1013 10 16 0.00 0.00
7:56 am 07:56 Cloudy 55 12.6 49 9.4 81 81 ENE 3 6 29.92 1013 10 16 0.00 0.00
8:56 am 08:56 Cloudy 56 13.1 49 9.5 79 79 E 3 6 29.94 1014 10 16 0.00 0.00
9:56 am 09:56 Cloudy 57 14.1 49 9.3 73 73 E 5 7 29.93 1014 10 16 0.00 0.00
10:56 am 10:56 Cloudy 60 15.4 48 8.8 65 65 Calm 29.92 1013 10 16 0.00 0.00
11:56 am 11:56 Cloudy 62 16.5 48 8.9 61 61 S 7 11 29.93 1014 10 16 0.00 0.00
12:56 pm 12:56 Partly Cloudy 64 17.9 49 9.3 57 57 SSW 6 9 29.91 1013 10 16 0.00 0.00
1:56 pm 13:56 Partly Cloudy 66 18.7 49 9.5 55 55 S 3 6 29.89 1012 10 16 0.00 0.00
2:56 pm 14:56 Cloudy 65 18.6 48 9.1 54 54 SW 7 11 29.88 1012 10 16 0.00 0.00
3:56 pm 15:56 Mostly Cloudy 66 18.8 49 9.3 54 54 S 7 11 29.88 1012 10 16 0.00 0.00
4:56 pm 16:56 Cloudy 67 19.2 49 9.4 53 53 Calm 29.85 1011 10 16 0.00 0.00
5:56 pm 17:56 Partly Cloudy 67 19.5 49 9.7 53 53 Calm 29.85 1011 10 16 0.00 0.00
6:56 pm 18:56 Cloudy 66 18.7 49 9.5 55 55 Calm 29.87 1011 10 16 0.00 0.00
7:56 pm 19:56 Cloudy 65 18.2 50 9.8 58 58 Calm 29.88 1012 10 16 0.00 0.00
8:56 pm 20:56 Cloudy 64 17.5 50 10.1 62 62 Calm 29.89 1012 10 16 0.00 0.00
9:56 pm 21:56 Clear 61 15.9 50 10 68 68 Calm 29.90 1013 10 16 0.00 0.00
10:56 pm 22:56 Clear 58 14.3 50 10.1 76 76 Calm 29.91 1013 10 16 0.00 0.00
11:56 pm 23:56 Clear 56 13.1 50 9.9 81 81 Calm 29.91 1013 10 16 0.00 0.00

Powered by AerisWeather